QPF
0.00 0.00 0.00 0.00 0.01 0.01 0.03 0.05 0.05 0.05 0.04 0.02 0.02 0.02 0.04 0.05 0.06 0.09 0.08 0.07 0.05 0.04 0.05 0.07 0.06 0.05 0.05 0.04 0.04 0.02 0.01 0.01 0.01 0.01 0.01 0.01 0.02 0.03 0.05 0.06 0.05 0.02 0.00
0.01 0.01 0.01 0.02 0.02 0.03 0.04 0.03 0.03 0.04 0.03 0.02 0.01 0.01 0.02 0.03 0.04 0.07 0.07 0.06 0.02 0.01 0.01 0.03 0.04 0.05 0.05 0.04 0.03 0.02 0.01 0.01 0.01 0.01 0.01 0.01 0.02 0.04 0.04 0.05 0.05 0.03 0.00
0.04 0.05 0.04 0.04 0.05 0.06 0.06 0.05 0.04 0.04 0.02 0.02 0.01 0.00 0.00 0.01 0.02 0.03 0.03 0.03 0.01 0.00 0.00 0.00 0.01 0.02 0.03 0.03 0.03 0.02 0.01 0.00 0.00 0.01 0.01 0.01 0.01 0.01 0.02 0.03 0.05 0.03 0.00
0.09 0.11 0.09 0.08 0.12 0.10 0.08 0.08 0.07 0.05 0.04 0.03 0.02 0.01 0.00 0.00 0.00 0.00 0.01 0.01 0.01 0.00 0.00 0.00 0.01 0.01 0.02 0.02 0.02 0.02 0.01 0.01 0.00 0.00 0.00 0.01 0.01 0.00 0.00 0.01 0.03 0.02 0.00
0.16 0.18 0.14 0.14 0.14 0.11 0.11 0.07 0.07 0.07 0.05 0.05 0.04 0.03 0.01 0.01 0.00 0.00 0.00 0.00 0.00 0.00 0.00 0.00 0.00 0.01 0.02 0.03 0.03 0.02 0.02 0.01 0.01 0.01 0.01 0.01 0.01 0.01 0.00 0.01 0.01 0.02 0.01
0.23 0.23 0.19 0.17 0.14 0.11 0.10 0.09 0.07 0.06 0.05 0.05 0.04 0.02 0.01 0.00 0.00 0.00 0.00 0.00 0.00 0.00 0.00 0.01 0.04 0.02 0.01 0.02 0.03 0.02 0.02 0.02 0.01 0.01 0.01 0.01 0.02 0.01 0.01 0.01 0.01 0.02 0.01
0.27 0.27 0.23 0.18 0.13 0.09 0.07 0.06 0.04 0.03 0.03 0.04 0.03 0.02 0.01 0.00 0.00 0.00 0.00 0.00 0.00 0.00 0.00 0.01 0.04 0.05 0.04 0.02 0.02 0.02 0.03 0.03 0.03 0.02 0.02 0.01 0.02 0.02 0.01 0.01 0.01 0.01 0.01
0.37 0.33 0.28 0.20 0.11 0.06 0.04 0.03 0.02 0.02 0.01 0.03 0.04 0.04 0.01 0.00 0.00 0.00 0.00 0.00 0.00 0.01 0.01 0.01 0.03 0.07 0.07 0.05 0.04 0.02 0.02 0.04 0.04 0.04 0.03 0.02 0.01 0.01 0.01 0.01 0.01 0.01 0.01
0.35 0.30 0.24 0.16 0.09 0.05 0.03 0.01 0.01 0.01 0.01 0.01 0.04 0.06 0.05 0.02 0.01 0.00 0.01 0.01 0.02 0.03 0.01 0.01 0.02 0.05 0.06 0.05 0.06 0.06 0.03 0.01 0.03 0.06 0.06 0.04 0.01 0.01 0.01 0.01 0.01 0.01 0.01
0.36 0.28 0.22 0.15 0.08 0.04 0.02 0.01 0.00 0.01 0.01 0.02 0.03 0.05 0.09 0.10 0.09 0.04 0.03 0.04 0.05 0.04 0.03 0.02 0.02 0.02 0.03 0.05 0.07 0.08 0.09 0.07 0.03 0.02 0.05 0.05 0.03 0.01 0.00 0.01 0.02 0.03 0.02
0.30 0.23 0.16 0.11 0.06 0.03 0.01 0.00 0.00 0.01 0.01 0.02 0.03 0.04 0.05 0.09 0.11 0.12 0.08 0.09 0.10 0.08 0.06 0.04 0.02 0.01 0.02 0.03 0.04 0.05 0.07 0.08 0.06 0.03 0.01 0.02 0.03 0.03 0.02 0.01 0.02 0.04 0.05
0.29 0.23 0.16 0.09 0.05 0.02 0.01 0.01 0.01 0.01 0.01 0.02 0.04 0.05 0.06 0.09 0.13 0.15 0.14 0.14 0.14 0.11 0.09 0.07 0.05 0.03 0.02 0.02 0.02 0.03 0.04 0.05 0.06 0.05 0.03 0.02 0.01 0.02 0.01 0.01 0.02 0.04 0.10
0.18 0.15 0.10 0.06 0.04 0.02 0.01 0.01 0.01 0.01 0.01 0.02 0.03 0.05 0.07 0.09 0.12 0.14 0.16 0.15 0.14 0.14 0.12 0.10 0.07 0.06 0.05 0.05 0.05 0.03 0.03 0.04 0.05 0.05 0.04 0.03 0.01 0.01 0.01 0.01 0.01 0.03 0.11
0.09 0.07 0.06 0.04 0.03 0.01 0.00 0.00 0.01 0.01 0.01 0.02 0.02 0.03 0.04 0.05 0.07 0.09 0.10 0.11 0.11 0.11 0.12 0.11 0.10 0.08 0.07 0.07 0.06 0.03 0.04 0.04 0.04 0.03 0.03 0.02 0.01 0.01 0.01 0.00 0.00 0.02 0.07
0.05 0.04 0.03 0.02 0.01 0.01 0.01 0.01 0.01 0.01 0.02 0.02 0.02 0.03 0.03 0.03 0.04 0.05 0.05 0.06 0.07 0.08 0.08 0.09 0.09 0.07 0.06 0.06 0.05 0.04 0.07 0.06 0.04 0.03 0.02 0.01 0.01 0.01 0.00 0.00 0.00 0.01 0.03
0.02 0.02 0.01 0.01 0.01 0.01 0.01 0.01 0.01 0.01 0.02 0.03 0.03 0.04 0.04 0.03 0.04 0.04 0.04 0.05 0.05 0.06 0.05 0.04 0.04 0.04 0.04 0.04 0.05 0.05 0.07 0.06 0.04 0.02 0.02 0.01 0.01 0.00 0.00 0.00 0.01 0.01 0.02
0.01 0.01 0.01 0.01 0.01 0.01 0.01 0.01 0.01 0.02 0.02 0.03 0.03 0.02 0.02 0.02 0.03 0.02 0.03 0.03 0.05 0.05 0.05 0.05 0.06 0.06 0.05 0.05 0.06 0.06 0.06 0.06 0.06 0.04 0.02 0.01 0.01 0.00 0.01 0.01 0.01 0.02 0.04
0.02 0.01 0.01 0.00 0.00 0.01 0.01 0.01 0.02 0.02 0.02 0.02 0.01 0.01 0.00 0.01 0.01 0.01 0.01 0.01 0.02 0.03 0.04 0.06 0.08 0.08 0.08 0.07 0.06 0.07 0.07 0.06 0.07 0.07 0.04 0.03 0.02 0.02 0.02 0.03 0.05 0.06 0.08
0.01 0.01 0.01 0.01 0.01 0.01 0.01 0.01 0.01 0.01 0.00 0.00 0.00 0.00 0.00 0.01 0.01 0.01 0.00 0.00 0.01 0.01 0.04 0.07 0.08 0.10 0.11 0.10 0.10 0.10 0.10 0.10 0.10 0.09 0.06 0.05 0.06 0.06 0.07 0.08 0.10 0.13 0.13
0.01 0.00 0.00 0.00 0.01 0.01 0.01 0.00 0.00 0.00 0.00 0.00 0.00 0.00 0.00 0.00 0.00 0.00 0.00 0.00 0.00 0.01 0.03 0.06 0.08 0.09 0.09 0.09 0.10 0.12 0.14 0.16 0.17 0.14 0.10 0.07 0.07 0.11 0.13 0.12 0.15 0.19 0.19
0.00 0.00 0.00 0.00 0.00 0.00 0.00 0.00 0.00 0.00 0.00 0.00 0.00 0.00 0.00 0.00 0.00 0.00 0.00 0.00 0.00 0.01 0.01 0.03 0.04 0.04 0.04 0.04 0.05 0.07 0.12 0.17 0.20 0.22 0.20 0.14 0.09 0.10 0.12 0.12 0.15 0.22 0.27
0.00 0.00 0.00 0.00 0.00 0.00 0.00 0.00 0.00 0.00 0.00 0.00 0.00 0.00 0.00 0.00 0.00 0.00 0.00 0.00 0.00 0.00 0.01 0.01 0.01 0.01 0.01 0.01 0.02 0.04 0.09 0.17 0.25 0.30 0.30 0.25 0.17 0.15 0.12 0.08 0.10 0.15 0.23
0.00 0.00 0.00 0.00 0.00 0.00 0.00 0.00 0.00 0.00 0.00 0.00 0.00 0.00 0.00 0.00 0.00 0.00 0.00 0.00 0.00 0.00 0.00 0.01 0.01 0.01 0.00 0.01 0.01 0.03 0.06 0.13 0.24 0.37 0.42 0.42 0.30 0.22 0.16 0.09 0.05 0.07 0.12
0.00 0.00 0.00 0.00 0.00 0.00 0.00 0.00 0.00 0.00 0.00 0.00 0.00 0.00 0.00 0.00 0.00 0.00 0.00 0.00 0.00 0.00 0.00 0.00 0.00 0.00 0.00 0.00 0.01 0.02 0.04 0.09 0.16 0.29 0.42 0.56 0.53 0.37 0.23 0.15 0.07 0.04 0.04
0.00 0.00 0.00 0.00 0.00 0.00 0.00 0.00 0.00 0.00 0.00 0.00 0.00 0.00 0.00 0.00 0.00 0.00 0.00 0.00 0.00 0.00 0.00 0.00 0.00 0.00 0.00 0.00 0.01 0.02 0.02 0.04 0.08 0.16 0.32 0.55 0.70 0.62 0.45 0.32 0.20 0.10 0.06
0.00 0.00 0.00 0.00 0.00 0.00 0.00 0.00 0.00 0.00 0.00 0.00 0.00 0.00 0.00 0.00 0.00 0.00 0.00 0.00 0.00 0.00 0.00 0.00 0.01 0.01 0.00 0.00 0.00 0.00 0.01 0.03 0.05 0.08 0.11 0.21 0.34 0.46 0.53 0.51 0.42 0.29 0.19
MSLP
1013.72 1013.82 1013.88 1013.91 1013.91 1013.90 1013.89 1013.89 1013.87 1013.84 1013.77 1013.66 1013.52 1013.35 1013.19 1013.06 1012.99 1013.00 1013.09 1013.26 1013.46 1013.67 1013.85 1013.98 1014.06 1014.08 1014.07 1014.06 1014.07 1014.14 1014.25 1014.42 1014.63 1014.87 1015.11 1015.34 1015.55 1015.76 1015.97 1016.18 1016.43 1016.70 1017.00
1013.47 1013.58 1013.65 1013.67 1013.65 1013.61 1013.56 1013.51 1013.46 1013.41 1013.33 1013.23 1013.09 1012.93 1012.77 1012.61 1012.50 1012.46 1012.48 1012.57 1012.72 1012.89 1013.06 1013.21 1013.33 1013.41 1013.48 1013.54 1013.62 1013.73 1013.88 1014.07 1014.28 1014.51 1014.73 1014.94 1015.14 1015.32 1015.51 1015.72 1015.96 1016.24 1016.57
1013.33 1013.46 1013.53 1013.53 1013.49 1013.42 1013.33 1013.25 1013.17 1013.09 1013.01 1012.90 1012.76 1012.59 1012.39 1012.19 1012.01 1011.88 1011.80 1011.80 1011.86 1011.98 1012.13 1012.30 1012.47 1012.64 1012.79 1012.94 1013.10 1013.28 1013.48 1013.69 1013.91 1014.13 1014.33 1014.51 1014.67 1014.83 1014.99 1015.19 1015.42 1015.71 1016.06
1013.26 1013.41 1013.48 1013.49 1013.42 1013.32 1013.20 1013.07 1012.96 1012.86 1012.76 1012.64 1012.49 1012.29 1012.05 1011.78 1011.51 1011.27 1011.08 1010.97 1010.94 1011.00 1011.13 1011.31 1011.53 1011.77 1012.01 1012.26 1012.51 1012.75 1013.00 1013.24 1013.46 1013.67 1013.85 1014.00 1014.14 1014.27 1014.40 1014.58 1014.81 1015.10 1015.47
1013.22 1013.39 1013.48 1013.48 1013.40 1013.27 1013.12 1012.96 1012.82 1012.69 1012.57 1012.43 1012.25 1012.02 1011.73 1011.39 1011.03 1010.68 1010.37 1010.15 1010.03 1010.03 1010.12 1010.31 1010.57 1010.87 1011.19 1011.52 1011.84 1012.14 1012.43 1012.69 1012.92 1013.12 1013.29 1013.42 1013.53 1013.63 1013.75 1013.90 1014.13 1014.43 1014.81
1013.17 1013.36 1013.46 1013.47 1013.39 1013.24 1013.07 1012.88 1012.71 1012.55 1012.41 1012.24 1012.04 1011.77 1011.44 1011.04 1010.60 1010.16 1009.76 1009.45 1009.25 1009.18 1009.24 1009.42 1009.69 1010.03 1010.39 1010.77 1011.14 1011.48 1011.80 1012.08 1012.32 1012.51 1012.66 1012.78 1012.87 1012.96 1013.06 1013.20 1013.41 1013.71 1014.10
1013.08 1013.30 1013.42 1013.44 1013.36 1013.21 1013.01 1012.80 1012.61 1012.43 1012.26 1012.08 1011.86 1011.57 1011.21 1010.77 1010.29 1009.79 1009.33 1008.95 1008.69 1008.56 1008.58 1008.74 1009.00 1009.33 1009.71 1010.10 1010.47 1010.83 1011.15 1011.44 1011.68 1011.87 1012.02 1012.13 1012.22 1012.29 1012.38 1012.51 1012.71 1013.00 1013.38
1012.93 1013.17 1013.32 1013.36 1013.29 1013.14 1012.94 1012.72 1012.52 1012.32 1012.14 1011.95 1011.72 1011.43 1011.06 1010.62 1010.12 1009.61 1009.12 1008.71 1008.41 1008.25 1008.23 1008.34 1008.56 1008.85 1009.20 1009.55 1009.91 1010.25 1010.55 1010.83 1011.06 1011.26 1011.41 1011.53 1011.61 1011.67 1011.75 1011.86 1012.04 1012.31 1012.68
1012.72 1012.99 1013.15 1013.21 1013.16 1013.03 1012.84 1012.63 1012.42 1012.22 1012.04 1011.85 1011.63 1011.35 1011.01 1010.59 1010.12 1009.63 1009.15 1008.75 1008.43 1008.24 1008.18 1008.24 1008.39 1008.62 1008.89 1009.18 1009.47 1009.76 1010.03 1010.29 1010.52 1010.71 1010.87 1010.99 1011.07 1011.14 1011.19 1011.28 1011.43 1011.67 1012.01
1012.45 1012.73 1012.92 1013.00 1012.98 1012.87 1012.70 1012.51 1012.31 1012.12 1011.95 1011.77 1011.58 1011.33 1011.03 1010.66 1010.24 1009.80 1009.38 1009.00 1008.69 1008.49 1008.38 1008.38 1008.45 1008.58 1008.76 1008.95 1009.16 1009.38 1009.60 1009.83 1010.04 1010.24 1010.40 1010.53 1010.61 1010.66 1010.70 1010.76 1010.86 1011.05 1011.36
1012.13 1012.42 1012.62 1012.72 1012.73 1012.65 1012.51 1012.35 1012.17 1012.01 1011.86 1011.70 1011.53 1011.33 1011.08 1010.77 1010.42 1010.05 1009.69 1009.35 1009.07 1008.86 1008.72 1008.65 1008.63 1008.66 1008.73 1008.82 1008.93 1009.07 1009.24 1009.42 1009.62 1009.81 1009.98 1010.11 1010.19 1010.22 1010.23 1010.25 1010.30 1010.44 1010.69
1011.79 1012.06 1012.26 1012.38 1012.41 1012.36 1012.27 1012.14 1012.00 1011.87 1011.74 1011.61 1011.47 1011.31 1011.11 1010.86 1010.59 1010.28 1009.98 1009.70 1009.44 1009.23 1009.06 1008.93 1008.83 1008.76 1008.72 1008.70 1008.73 1008.79 1008.90 1009.05 1009.22 1009.41 1009.57 1009.69 1009.76 1009.77 1009.74 1009.70 1009.70 1009.78 1009.97
1011.45 1011.69 1011.87 1011.99 1012.04 1012.03 1011.97 1011.88 1011.79 1011.69 1011.59 1011.48 1011.37 1011.24 1011.08 1010.88 1010.66 1010.42 1010.17 1009.93 1009.70 1009.49 1009.30 1009.12 1008.95 1008.80 1008.66 1008.56 1008.50 1008.50 1008.56 1008.67 1008.83 1008.99 1009.14 1009.25 1009.29 1009.27 1009.19 1009.10 1009.04 1009.06 1009.21
1011.15 1011.34 1011.49 1011.60 1011.66 1011.67 1011.65 1011.61 1011.55 1011.48 1011.41 1011.33 1011.24 1011.12 1010.98 1010.82 1010.63 1010.43 1010.22 1010.01 1009.80 1009.59 1009.38 1009.16 1008.94 1008.73 1008.52 1008.36 1008.24 1008.18 1008.20 1008.28 1008.41 1008.56 1008.69 1008.76 1008.77 1008.70 1008.58 1008.43 1008.31 1008.29 1008.40
1010.92 1011.05 1011.16 1011.25 1011.31 1011.35 1011.36 1011.35 1011.33 1011.30 1011.25 1011.19 1011.10 1011.00 1010.86 1010.71 1010.53 1010.35 1010.15 1009.96 1009.76 1009.54 1009.32 1009.08 1008.83 1008.57 1008.33 1008.12 1007.96 1007.87 1007.86 1007.91 1008.01 1008.12 1008.21 1008.25 1008.21 1008.10 1007.92 1007.73 1007.57 1007.51 1007.60
1010.80 1010.87 1010.94 1011.00 1011.06 1011.11 1011.15 1011.18 1011.20 1011.19 1011.17 1011.11 1011.03 1010.92 1010.78 1010.62 1010.44 1010.25 1010.05 1009.85 1009.65 1009.43 1009.19 1008.94 1008.67 1008.40 1008.13 1007.90 1007.72 1007.61 1007.57 1007.59 1007.65 1007.72 1007.77 1007.76 1007.67 1007.51 1007.30 1007.07 1006.88 1006.80 1006.88
1010.82 1010.84 1010.87 1010.92 1010.97 1011.03 1011.09 1011.15 1011.19 1011.21 1011.21 1011.16 1011.08 1010.96 1010.81 1010.63 1010.44 1010.23 1010.02 1009.80 1009.58 1009.36 1009.11 1008.85 1008.57 1008.29 1008.02 1007.78 1007.59 1007.46 1007.39 1007.38 1007.40 1007.42 1007.41 1007.35 1007.21 1007.01 1006.77 1006.52 1006.33 1006.26 1006.35
1010.99 1010.98 1010.98 1011.01 1011.06 1011.13 1011.21 1011.29 1011.35 1011.40 1011.41 1011.37 1011.30 1011.18 1011.01 1010.82 1010.60 1010.38 1010.14 1009.91 1009.67 1009.42 1009.16 1008.89 1008.61 1008.33 1008.06 1007.81 1007.61 1007.46 1007.36 1007.31 1007.28 1007.25 1007.18 1007.07 1006.89 1006.66 1006.40 1006.16 1005.99 1005.94 1006.06
1011.25 1011.25 1011.25 1011.28 1011.33 1011.41 1011.49 1011.59 1011.67 1011.73 1011.76 1011.74 1011.68 1011.56 1011.40 1011.19 1010.96 1010.72 1010.46 1010.20 1009.94 1009.67 1009.39 1009.11 1008.82 1008.53 1008.25 1008.00 1007.79 1007.62 1007.49 1007.39 1007.31 1007.22 1007.10 1006.94 1006.73 1006.49 1006.24 1006.02 1005.88 1005.88 1006.05
1011.58 1011.60 1011.63 1011.67 1011.73 1011.81 1011.91 1012.01 1012.11 1012.18 1012.23 1012.23 1012.17 1012.07 1011.92 1011.72 1011.48 1011.23 1010.95 1010.67 1010.38 1010.08 1009.79 1009.48 1009.17 1008.88 1008.59 1008.32 1008.09 1007.89 1007.73 1007.59 1007.46 1007.32 1007.16 1006.97 1006.74 1006.50 1006.27 1006.09 1006.01 1006.06 1006.28
1011.89 1011.97 1012.04 1012.11 1012.19 1012.28 1012.38 1012.49 1012.59 1012.67 1012.73 1012.75 1012.71 1012.63 1012.50 1012.31 1012.09 1011.83 1011.55 1011.24 1010.93 1010.61 1010.28 1009.95 1009.62 1009.30 1009.00 1008.71 1008.46 1008.24 1008.04 1007.86 1007.69 1007.52 1007.32 1007.11 1006.88 1006.66 1006.47 1006.34 1006.32 1006.43 1006.70
1012.13 1012.28 1012.41 1012.52 1012.63 1012.73 1012.84 1012.94 1013.04 1013.13 1013.19 1013.22 1013.21 1013.15 1013.04 1012.88 1012.68 1012.42 1012.14 1011.83 1011.49 1011.15 1010.79 1010.43 1010.07 1009.73 1009.40 1009.10 1008.82 1008.58 1008.36 1008.15 1007.95 1007.76 1007.55 1007.33 1007.12 1006.93 1006.77 1006.70 1006.74 1006.90 1007.22
1012.26 1012.49 1012.68 1012.85 1012.99 1013.11 1013.22 1013.32 1013.41 1013.50 1013.56 1013.60 1013.60 1013.57 1013.48 1013.35 1013.16 1012.93 1012.65 1012.33 1011.98 1011.62 1011.23 1010.85 1010.46 1010.09 1009.74 1009.42 1009.13 1008.87 1008.63 1008.42 1008.21 1008.00 1007.80 1007.59 1007.40 1007.24 1007.13 1007.11 1007.19 1007.40 1007.74
1012.26 1012.57 1012.84 1013.06 1013.23 1013.38 1013.49 1013.59 1013.68 1013.75 1013.81 1013.85 1013.86 1013.84 1013.78 1013.67 1013.51 1013.29 1013.02 1012.71 1012.35 1011.97 1011.57 1011.16 1010.76 1010.37 1010.00 1009.67 1009.37 1009.10 1008.86 1008.64 1008.44 1008.24 1008.05 1007.86 1007.70 1007.57 1007.50 1007.50 1007.62 1007.84 1008.19
1012.16 1012.55 1012.88 1013.16 1013.38 1013.55 1013.68 1013.78 1013.86 1013.92 1013.97 1014.00 1014.01 1013.99 1013.94 1013.85 1013.71 1013.51 1013.26 1012.96 1012.61 1012.23 1011.82 1011.40 1010.98 1010.58 1010.20 1009.86 1009.56 1009.29 1009.06 1008.84 1008.65 1008.47 1008.29 1008.13 1007.98 1007.88 1007.83 1007.86 1007.97 1008.19 1008.52
1012.00 1012.45 1012.85 1013.19 1013.46 1013.67 1013.82 1013.93 1014.00 1014.05 1014.08 1014.10 1014.10 1014.08 1014.03 1013.95 1013.82 1013.64 1013.41 1013.13 1012.80 1012.42 1012.02 1011.60 1011.18 1010.78 1010.40 1010.06 1009.76 1009.49 1009.26 1009.06 1008.87 1008.70 1008.54 1008.39 1008.26 1008.17 1008.13 1008.15 1008.25 1008.44 1008.72
Thickness
5782 5781 5778 5775 5776 5777 5775 5774 5774 5774 5773 5773 5773 5773 5771 5770 5769 5768 5766 5763 5760 5758 5757 5756 5755 5754 5753 5752 5751 5750 5749 5747 5746 5745 5743 5741 5739 5737 5735 5733 5730 5727 5725
5778 5777 5775 5773 5774 5773 5773 5772 5772 5772 5772 5773 5772 5771 5770 5771 5770 5768 5768 5766 5763 5761 5759 5757 5756 5755 5754 5753 5752 5750 5749 5747 5746 5744 5743 5741 5739 5738 5736 5734 5732 5729 5726
5773 5771 5771 5771 5771 5770 5768 5767 5769 5769 5769 5770 5770 5770 5770 5770 5769 5768 5767 5767 5766 5764 5761 5759 5757 5756 5754 5753 5752 5751 5749 5747 5745 5744 5742 5740 5739 5738 5736 5734 5732 5730 5727
5767 5765 5765 5766 5766 5765 5765 5764 5763 5765 5765 5765 5766 5767 5769 5770 5769 5768 5767 5767 5766 5766 5765 5761 5758 5756 5754 5753 5751 5750 5749 5747 5745 5743 5741 5739 5738 5737 5736 5734 5733 5731 5728
5761 5758 5757 5758 5758 5759 5759 5758 5760 5759 5759 5759 5761 5763 5766 5768 5769 5769 5768 5767 5766 5764 5764 5763 5759 5757 5754 5752 5751 5749 5747 5746 5744 5742 5740 5739 5737 5736 5735 5734 5732 5730 5728
5755 5751 5749 5749 5749 5750 5751 5751 5751 5752 5752 5754 5757 5760 5762 5765 5767 5768 5767 5767 5767 5766 5764 5763 5761 5758 5754 5752 5749 5747 5746 5744 5743 5741 5739 5738 5737 5736 5734 5733 5731 5730 5728
5748 5745 5740 5739 5740 5741 5742 5744 5745 5746 5747 5750 5749 5753 5760 5764 5766 5765 5766 5766 5767 5766 5764 5761 5759 5758 5756 5751 5748 5746 5744 5743 5741 5740 5738 5737 5736 5735 5734 5732 5731 5729 5727
5738 5736 5732 5731 5730 5731 5732 5735 5737 5738 5741 5743 5740 5741 5747 5755 5761 5765 5762 5761 5761 5761 5761 5759 5756 5754 5752 5752 5749 5744 5742 5740 5739 5738 5737 5736 5735 5734 5733 5732 5731 5729 5727
5730 5727 5724 5721 5720 5721 5725 5727 5729 5730 5732 5735 5736 5732 5733 5740 5746 5754 5755 5754 5752 5751 5752 5753 5751 5749 5746 5746 5746 5742 5739 5737 5736 5735 5735 5734 5734 5733 5732 5731 5730 5728 5726
5722 5718 5714 5712 5712 5715 5717 5720 5725 5725 5724 5727 5730 5729 5727 5728 5724 5733 5743 5744 5743 5741 5742 5742 5743 5742 5740 5739 5739 5737 5735 5734 5732 5732 5731 5731 5731 5731 5730 5730 5729 5727 5726
5715 5710 5707 5704 5704 5708 5711 5713 5715 5717 5720 5720 5721 5722 5722 5721 5719 5715 5722 5728 5730 5733 5734 5734 5733 5733 5732 5731 5731 5731 5729 5728 5727 5726 5726 5726 5726 5727 5727 5727 5727 5726 5725
5707 5702 5701 5699 5699 5702 5703 5706 5709 5711 5712 5712 5713 5714 5713 5712 5712 5710 5711 5715 5717 5723 5725 5726 5725 5725 5724 5724 5723 5723 5722 5721 5721 5720 5720 5720 5720 5721 5722 5723 5724 5724 5724
5698 5694 5694 5693 5694 5694 5696 5699 5701 5703 5705 5704 5704 5706 5706 5706 5706 5705 5704 5706 5709 5714 5716 5716 5717 5717 5717 5716 5714 5713 5714 5714 5714 5714 5714 5713 5713 5715 5717 5719 5720 5721 5722
5690 5687 5687 5687 5687 5688 5690 5692 5696 5697 5697 5697 5698 5697 5699 5700 5700 5699 5699 5699 5701 5705 5705 5705 5708 5708 5707 5707 5706 5705 5707 5706 5706 5706 5706 5706 5707 5709 5711 5714 5716 5718 5720
5679 5678 5678 5678 5679 5680 5682 5685 5688 5688 5688 5689 5690 5691 5691 5692 5693 5694 5694 5694 5691 5691 5694 5696 5696 5698 5697 5698 5697 5699 5699 5698 5697 5698 5698 5699 5701 5703 5706 5710 5713 5715 5716
5667 5668 5668 5669 5670 5672 5675 5677 5679 5680 5680 5680 5681 5680 5680 5683 5684 5686 5686 5686 5685 5683 5684 5689 5687 5688 5688 5689 5689 5690 5690 5689 5689 5689 5690 5692 5694 5698 5702 5706 5710 5712 5712
5655 5657 5659 5660 5662 5664 5667 5669 5671 5671 5671 5670 5671 5670 5669 5671 5674 5677 5678 5679 5678 5677 5676 5680 5681 5681 5679 5678 5679 5679 5680 5681 5682 5681 5682 5684 5686 5691 5695 5700 5704 5707 5708
5644 5647 5649 5651 5653 5656 5658 5659 5660 5660 5660 5659 5659 5658 5659 5661 5661 5664 5666 5668 5669 5669 5669 5668 5671 5672 5671 5670 5670 5669 5669 5671 5672 5672 5673 5675 5678 5683 5687 5693 5697 5700 5702
5633 5636 5639 5641 5643 5645 5647 5648 5648 5647 5647 5647 5647 5647 5647 5648 5649 5652 5653 5656 5660 5663 5662 5662 5662 5662 5662 5662 5662 5662 5663 5662 5664 5664 5664 5666 5669 5673 5678 5683 5687 5691 5693
5624 5626 5629 5631 5633 5635 5636 5636 5636 5635 5635 5634 5634 5634 5635 5635 5636 5639 5642 5644 5648 5651 5653 5654 5652 5653 5653 5654 5654 5653 5655 5656 5656 5658 5658 5658 5660 5663 5668 5672 5676 5679 5681
5617 5618 5620 5622 5624 5625 5626 5625 5625 5624 5623 5622 5622 5622 5621 5620 5619 5623 5628 5630 5635 5638 5642 5642 5641 5642 5641 5642 5642 5644 5645 5648 5650 5650 5650 5651 5653 5656 5658 5660 5663 5666 5668
5610 5612 5613 5614 5614 5614 5609 5611 5614 5613 5612 5612 5611 5612 5613 5611 5611 5611 5612 5612 5615 5620 5623 5627 5628 5626 5626 5629 5631 5634 5634 5637 5638 5640 5641 5643 5645 5646 5649 5651 5652 5653 5654
5605 5605 5605 5605 5603 5598 5597 5599 5601 5604 5603 5601 5601 5602 5604 5602 5602 5606 5604 5603 5603 5603 5604 5609 5611 5610 5615 5617 5620 5624 5624 5624 5625 5627 5631 5633 5635 5637 5639 5640 5641 5641 5641
5600 5599 5598 5597 5594 5589 5587 5589 5591 5595 5594 5592 5592 5592 5592 5591 5589 5590 5595 5595 5596 5594 5594 5597 5596 5596 5600 5603 5609 5615 5617 5617 5617 5618 5621 5621 5624 5626 5628 5630 5630 5630 5630
5595 5594 5593 5591 5588 5582 5580 5582 5585 5587 5586 5584 5583 5581 5582 5581 5575 5578 5585 5585 5586 5585 5583 5582 5581 5583 5585 5589 5595 5604 5607 5611 5609 5609 5610 5611 5613 5616 5619 5619 5620 5620 5620
5592 5590 5587 5585 5583 5580 5575 5576 5578 5584 5581 5580 5578 5576 5569 5568 5566 5568 5575 5575 5573 5574 5576 5578 5576 5577 5580 5583 5585 5588 5594 5597 5599 5600 5601 5603 5605 5607 5608 5610 5611 5612 5612